TimeCST,TemperatureF,Dew PointF,Humidity,Sea Level PressureIn,VisibilityMPH,Wind Direction,Wind SpeedMPH,Gust SpeedMPH,PrecipitationIn,Events,Conditions,WindDirDegrees,DateUTC
12:52 AM,12.0,8.1,84,30.12,-9999.0,Calm,Calm,-,N/A,,Unknown,0,2013-02-23 06:52:00
1:52 AM,10.0,6.1,84,30.12,-9999.0,Calm,Calm,-,N/A,,Unknown,0,2013-02-23 07:52:00
2:52 AM,9.0,3.9,80,30.12,-9999.0,Calm,Calm,-,N/A,,Unknown,0,2013-02-23 08:52:00
3:52 AM,6.1,1.0,80,30.12,-9999.0,Calm,Calm,-,N/A,,Unknown,0,2013-02-23 09:52:00
4:52 AM,3.9,-0.0,84,30.11,-9999.0,Calm,Calm,-,N/A,,Unknown,0,2013-02-23 10:52:00
5:52 AM,3.0,-2.0,80,30.12,-9999.0,Calm,Calm,-,N/A,,Unknown,0,2013-02-23 11:52:00
6:52 AM,1.9,-2.0,83,30.12,-9999.0,Calm,Calm,-,N/A,,Unknown,0,2013-02-23 12:52:00
7:52 AM,3.9,1.9,91,30.11,-9999.0,Calm,Calm,-,N/A,,Unknown,0,2013-02-23 13:52:00
8:52 AM,12.9,12.9,100,30.11,-9999.0,Calm,Calm,-,N/A,,Unknown,0,2013-02-23 14:52:00
9:52 AM,18.0,12.9,81,30.10,-9999.0,Calm,Calm,-,N/A,,Unknown,0,2013-02-23 15:52:00
10:52 AM,21.0,12.9,71,30.10,-9999.0,South,4.6,-,N/A,,Unknown,190,2013-02-23 16:52:00
11:52 AM,25.0,14.0,63,30.10,-9999.0,South,3.5,-,N/A,,Unknown,180,2013-02-23 17:52:00
12:52 PM,27.0,16.0,63,30.07,-9999.0,South,5.8,-,N/A,,Unknown,170,2013-02-23 18:52:00
1:52 PM,28.9,17.1,61,30.06,-9999.0,South,6.9,-,N/A,,Unknown,180,2013-02-23 19:52:00
2:52 PM,30.0,17.1,59,30.05,-9999.0,South,9.2,-,N/A,,Unknown,190,2013-02-23 20:52:00
3:52 PM,30.0,17.1,59,30.04,-9999.0,South,8.1,-,N/A,,Unknown,180,2013-02-23 21:52:00
4:52 PM,30.0,17.1,59,30.04,-9999.0,South,6.9,-,N/A,,Unknown,180,2013-02-23 22:52:00
5:52 PM,28.9,16.0,58,30.04,-9999.0,South,5.8,-,N/A,,Unknown,180,2013-02-23 23:52:00
6:52 PM,26.1,16.0,66,30.04,-9999.0,SSE,4.6,-,N/A,,Unknown,160,2013-02-24 00:52:00
7:52 PM,24.1,16.0,71,30.04,-9999.0,SE,4.6,-,N/A,,Unknown,140,2013-02-24 01:52:00
8:52 PM,19.9,15.1,81,30.04,-9999.0,South,4.6,-,N/A,,Unknown,170,2013-02-24 02:52:00
9:52 PM,18.0,12.9,81,30.07,-9999.0,Calm,Calm,-,N/A,,Unknown,0,2013-02-24 03:52:00
10:52 PM,17.1,12.9,84,30.06,-9999.0,SSW,4.6,-,N/A,,Unknown,210,2013-02-24 04:52:00
11:52 PM,19.0,14.0,81,30.06,-9999.0,South,4.6,-,N/A,,Unknown,190,2013-02-24 05:52:00